Weather History for San Carlos, CA

Change the Weather History Date:

Thursday, November 28, 2013

  Actual Average Record
Temperature  
Mean Temperature 57 °F -  
Max Temperature 66 °F 61 °F 72 °F (1949)
Min Temperature 48 °F 41 °F 31 °F (1948)
Degree Days  
Heating Degree Days 8    
Growing Degree Days 7 (Base 50)    
Moisture  
Dew Point 44 °F    
Average Humidity 75    
Maximum Humidity 93    
Minimum Humidity 40    
Precipitation  
Precipitation 0.00 in - - ()
Sea Level Pressure  
Sea Level Pressure 29.96 in    
Wind  
Wind Speed 1 mph (NW)    
Max Wind Speed 7 mph    
Max Gust Speed -    
Visibility 8 miles    
Events      
Averages and records for this station are not official NWS values.
T = Trace of Precipitation, MM = Missing Value Source: NWS Daily Summary

Daily Weather History Graph

Daily Weather History Graph

Search for Another Location

Airport:

Trip Planner

Search our weather history database for the weather conditions in past years. The results will help you decide how hot, cold, wet, or windy it might be!

Date:

Astronomy

Nov. 28, 2013 Rise Set
Actual Time 7:02 AM PST 4:51 PM PST
Civil Twilight 6:33 AM PST 5:20 PM PST
Nautical Twilight 6:01 AM PST 5:52 PM PST
Astronomical Twilight 5:29 AM PST 6:24 PM PST
Moon 2:15 AM PST (11/28) 1:59 PM PST (11/28)
Length of Visible Light 10h 46m
Length of Day
9h 49m
Waning Crescent, 21% of the Moon is Illuminated
Nov 28
Waning Crescent
Dec 2
New
Dec 9
First Quarter
Dec 17
Full
Dec 25
Last Quarter

Hourly Weather History & Observations

Time (PST) Temp. Dew Point Humidity Pressure Visibility Wind Dir Wind Speed Gust Speed Precip Events Conditions
12:15 AM 51.8 °F 44.6 °F 76% 29.88 in 6.0 mi Calm Calm - N/A   Haze
12:35 AM 51.8 °F 44.6 °F 76% 29.88 in 6.0 mi Calm Calm - N/A   Haze
12:55 AM 50.0 °F 44.6 °F 82% 29.88 in 5.0 mi Calm Calm - N/A   Haze
1:15 AM 50.0 °F 44.6 °F 82% 29.88 in 5.0 mi Calm Calm - N/A   Haze
1:35 AM 50.0 °F 46.4 °F 87% 29.88 in 5.0 mi Calm Calm - N/A   Clear
1:55 AM 50.0 °F 44.6 °F 82% 29.89 in 6.0 mi Calm Calm - N/A   Haze
2:15 AM 48.2 °F 44.6 °F 87% 29.89 in 6.0 mi Calm Calm - N/A   Haze
2:35 AM 48.2 °F 46.4 °F 93% 29.89 in 5.0 mi Calm Calm - N/A   Clear
2:55 AM 48.2 °F 44.6 °F 87% 29.89 in 5.0 mi Calm Calm - N/A   Clear
3:15 AM 48.2 °F 44.6 °F 87% 29.89 in 5.0 mi Calm Calm - N/A   Clear
3:35 AM 48.2 °F 44.6 °F 87% 29.89 in 6.0 mi Calm Calm - N/A   Haze
3:55 AM 48.2 °F 44.6 °F 87% 29.89 in 6.0 mi Calm Calm - N/A   Clear
4:15 AM 48.2 °F 44.6 °F 87% 29.89 in 6.0 mi Calm Calm - N/A   Clear
4:35 AM 48.2 °F 44.6 °F 87% 29.90 in 6.0 mi Calm Calm - N/A   Clear
4:55 AM 48.2 °F 42.8 °F 82% 29.90 in 6.0 mi Calm Calm - N/A   Haze
5:15 AM 48.2 °F 42.8 °F 82% 29.90 in 7.0 mi North - - N/A   Clear
5:35 AM 48.2 °F 44.6 °F 87% 29.90 in 7.0 mi Calm Calm - N/A   Clear
5:55 AM 48.2 °F 44.6 °F 87% 29.90 in 8.0 mi Calm Calm - N/A   Clear
6:15 AM 48.2 °F 44.6 °F 87% 29.91 in 8.0 mi Calm Calm - N/A   Clear
6:35 AM 50.0 °F 44.6 °F 82% 29.92 in 10.0 mi Calm Calm - N/A   Clear
6:47 AM 50.0 °F 44.6 °F 82% 29.92 in 10.0 mi Calm Calm - N/A   Mostly Cloudy
6:55 AM 48.2 °F 44.6 °F 87% 29.92 in 9.0 mi Calm Calm - N/A   Clear
7:47 AM 50.0 °F 44.6 °F 82% 29.93 in 10.0 mi Calm Calm - N/A   Mostly Cloudy
8:47 AM 53.6 °F 44.6 °F 72% 29.95 in 10.0 mi SE 3.5 mph - N/A   Mostly Cloudy
9:47 AM 55.4 °F 46.4 °F 72% 29.96 in 9.0 mi Calm Calm - N/A   Partly Cloudy
10:55 AM 59.0 °F 44.6 °F 59% 29.96 in 8.0 mi East 3.5 mph - N/A   Clear
11:50 AM 59.0 °F 46.4 °F 63% 29.95 in 8.0 mi NE 3.5 mph - N/A   Partly Cloudy
12:47 PM 64.4 °F 42.8 °F 45% 29.94 in 10.0 mi Variable 4.6 mph - N/A   Scattered Clouds
1:50 PM 64.4 °F 46.4 °F 52% 29.94 in 10.0 mi NNE 5.8 mph - N/A   Scattered Clouds
2:48 PM 66.2 °F 42.8 °F 43% 29.95 in 10.0 mi NW 5.8 mph - N/A   Scattered Clouds
3:47 PM 66.2 °F 41.0 °F 40% 29.96 in 10.0 mi NNW 4.6 mph - N/A   Partly Cloudy
4:47 PM 64.4 °F 42.8 °F 45% 29.97 in 10.0 mi West 4.6 mph - N/A   Partly Cloudy
5:54 PM 57.2 °F 44.6 °F 63% 30.00 in 10.0 mi NW 3.5 mph - N/A   Clear
6:47 PM 57.2 °F 44.6 °F 63% 30.02 in 10.0 mi Calm Calm - N/A   Partly Cloudy
7:50 PM 55.4 °F 44.6 °F 67% 30.03 in 10.0 mi Calm Calm - N/A   Partly Cloudy
8:47 PM 53.6 °F 48.2 °F 82% 30.06 in 10.0 mi Calm Calm - N/A   Partly Cloudy
9:15 PM 53.6 °F 44.6 °F 72% 30.06 in 10.0 mi Calm Calm - N/A   Clear
9:35 PM 53.6 °F 44.6 °F 72% 30.07 in 10.0 mi Calm Calm - N/A   Clear
9:55 PM 50.0 °F 44.6 °F 82% 30.08 in 10.0 mi SSE 6.9 mph - N/A   Clear
10:15 PM 50.0 °F 42.8 °F 76% 30.08 in 10.0 mi Calm Calm - N/A   Clear
10:35 PM 50.0 °F 41.0 °F 71% 30.08 in 10.0 mi SSW 3.5 mph - N/A   Clear
10:55 PM 50.0 °F 41.0 °F 71% 30.08 in 10.0 mi SSW 3.5 mph - N/A   Clear
11:15 PM 50.0 °F 41.0 °F 71% 30.09 in 10.0 mi Calm Calm - N/A   Clear
11:35 PM 50.0 °F 41.0 °F 71% 30.09 in 10.0 mi Calm Calm - N/A   Clear
11:55 PM 50.0 °F 41.0 °F 71% 30.09 in 10.0 mi Calm Calm - N/A   Clear